Location: Unspecified
(32.5099°N, 80.0190°W)
Time: 13:57:44
(UTC-04:00)

CZ-3 Stage 3 - Visible Passes

Search period start: 20 October 2014 00:00
Search period end: 30 October 2014 00:00
Orbit: 414 x 34825 km, 30.9° (Epoch: 18 October)

Date Brightness Start Highest point End Pass type
(mag) Time Alt. Az. Time Alt. Az. Time Alt. Az.
20 Oct 8.5 00:00:00 32° ESE 00:39:44 34° ESE 01:42:44 10° E visible
21 Oct 5.3 00:23:55 10° SSW 08:54:11 83° S 09:00:38 10° E visible
21 Oct 7.7 20:37:11 10° SSE 05:00:22 74° SSE 05:25:09 10° E visible
22 Oct 8.5 20:54:04 10° ESE 00:36:15 36° ESE 01:40:11 10° E visible
24 Oct 5.2 00:20:54 10° SSW 08:50:51 81° S 08:57:09 10° ESE visible
24 Oct 7.6 20:30:14 10° SSE 04:57:47 75° SSE 05:21:45 10° E visible
25 Oct 8.4 20:38:07 10° ESE 00:32:41 39° ESE 01:37:30 10° E visible
27 Oct 5.1 00:17:53 10° SSW 08:47:29 80° SSW 08:53:38 10° ESE visible
27 Oct 7.5 20:23:48 10° SSE 04:55:07 77° SSE 05:18:19 10° E visible
28 Oct 8.3 20:22:17 10° ESE 00:29:04 41° ESE 01:34:41 10° ENE visible
